Change the Weather History Date:

Sunday, December 7, 2014

  Actual Average Record
Temperature  
Mean Temperature 35 °F 18 °F  
Max Temperature 44 °F 30 °F 50 °F (1928)
Min Temperature 26 °F 6 °F -31 °F (1978)
Degree Days  
Heating Degree Days 30 47  
Month to date heating degree days 258 322  
Since 1 July heating degree days 2588 2812  
Cooling Degree Days 0 0  
Month to date cooling degree days 0 0  
Year to date cooling degree days 78 81  
Moisture  
Dew Point 22 °F    
Average Humidity 61    
Maximum Humidity 84    
Minimum Humidity 37    
Precipitation  
Precipitation 0.00 in 0.01 in 0.19 in (2003)
Month to date precipitation T 0.12  
Year to date precipitation 14.27 12.38  
Sea Level Pressure  
Sea Level Pressure 30.31 in    
Wind  
Wind Speed 4 mph (West)    
Max Wind Speed 16 mph    
Max Gust Speed 26 mph    
Visibility 10 miles    
Events      
T = Trace of Precipitation, MM = Missing Value Source: NWS Daily Summary

Daily Weather History Graph

Daily Weather History Graph

Search for Another Location

Airport or City:

Trip Planner

Search our weather history database for the weather conditions in past years. The results will help you decide how hot, cold, wet, or windy it might be!

Date:

Astronomy

Dec. 07, 2014 Rise Set
Actual Time 7:57 AM MST 4:44 PM MST
Civil Twilight 7:23 AM MST 5:19 PM MST
Nautical Twilight 6:46 AM MST 5:56 PM MST
Astronomical Twilight 6:09 AM MST 6:33 PM MST
Moon 6:20 PM MST (12/7) 8:41 AM MST (12/7)
Length of Visible Light 9h 55m
Length of Day
8h 47m
Full, 98% of the Moon is Illuminated
Dec 7
Full
Dec 14
Last Quarter
Dec 21
New
Dec 28
First Quarter
Jan 4
Full

Hourly Weather History & Observations

Time (MST) Temp. Windchill Dew Point Humidity Pressure Visibility Wind Dir Wind Speed Gust Speed Precip Events Conditions
12:53 AM 41.0 °F 33.9 °F 23.0 °F 49% 30.21 in 10.0 mi West 12.7 mph 18.4 mph N/A   Overcast
1:53 AM 37.9 °F 32.7 °F 25.0 °F 60% 30.23 in 10.0 mi WNW 6.9 mph - N/A   Overcast
2:53 AM 39.0 °F 31.4 °F 24.1 °F 55% 30.22 in 10.0 mi West 12.7 mph 21.9 mph N/A   Mostly Cloudy
3:53 AM 39.0 °F 33.4 °F 23.0 °F 53% 30.24 in 10.0 mi WNW 8.1 mph - N/A   Scattered Clouds
4:53 AM 37.0 °F 33.3 °F 23.0 °F 57% 30.27 in 10.0 mi Variable 4.6 mph - N/A   Scattered Clouds
5:53 AM 35.1 °F 31.0 °F 23.0 °F 61% 30.30 in 10.0 mi NNW 4.6 mph - N/A   Clear
6:53 AM 34.0 °F - 21.9 °F 61% 30.32 in 10.0 mi Calm Calm - N/A   Clear
7:53 AM 28.9 °F 23.9 °F 21.9 °F 75% 30.36 in 10.0 mi South 4.6 mph - N/A   Clear
8:53 AM 28.0 °F - 21.9 °F 78% 30.39 in 10.0 mi Calm Calm - N/A   Clear
9:53 AM 32.0 °F - 24.1 °F 73% 30.38 in 10.0 mi Calm Calm - N/A   Clear
10:53 AM 39.0 °F - 23.0 °F 53% 30.35 in 10.0 mi Calm Calm - N/A   Clear
11:53 AM 42.1 °F - 21.9 °F 45% 30.32 in 10.0 mi Calm Calm - N/A   Clear
12:53 PM 41.0 °F 39.0 °F 21.0 °F 45% 30.30 in 10.0 mi NW 3.5 mph - N/A   Clear
1:53 PM 43.0 °F 38.2 °F 19.0 °F 38% 30.27 in 10.0 mi West 8.1 mph - N/A   Clear
2:53 PM 44.1 °F - 19.0 °F 37% 30.25 in 10.0 mi Calm Calm - N/A   Clear
3:53 PM 43.0 °F 40.3 °F 19.0 °F 38% 30.28 in 10.0 mi SSW 4.6 mph - N/A   Clear
4:53 PM 37.0 °F - 21.0 °F 52% 30.32 in 10.0 mi Calm Calm - N/A   Clear
5:53 PM 34.0 °F 31.0 °F 21.9 °F 61% 30.34 in 10.0 mi North 3.5 mph - N/A   Clear
6:53 PM 27.0 °F 23.0 °F 21.0 °F 78% 30.38 in 10.0 mi SW 3.5 mph - N/A   Clear
7:53 PM 27.0 °F - 19.9 °F 75% 30.41 in 10.0 mi Calm Calm - N/A   Clear
8:53 PM 28.0 °F 24.2 °F 21.0 °F 75% 30.41 in 10.0 mi East 3.5 mph - N/A   Clear
9:53 PM 27.0 °F - 23.0 °F 85% 30.39 in 10.0 mi Calm Calm - N/A   Clear
10:53 PM 26.6 °F 22.6 °F 21.2 °F 80% 30.28 in 10.0 mi SE 3.5 mph - N/A   Clear
11:53 PM 27.0 °F - 23.0 °F 85% 30.33 in 10.0 mi Calm Calm - N/A   Clear